sat.trackr.live / text

‹ back to catalog

STARLINK-36275

NORAD 68702 · 2026-081D

PAYLOAD ACTIVE UNKNOWN

§ Identity

Operator
Country
US
Launch date
2026-04-14
Launch site
AFETR
Launch vehicle
Mass (kg)
RCS (m²)

Purposes: comms

External: N2YO · Heavens-Above · Gunter

§ Orbital elements

Epoch: 2026-05-25T03:10:11.426016Z

Period
92.94 min
Inclination
53.1598°
Eccentricity
0.0000793
Mean motion
15.49323883 rev/d
Perigee alt
418.2 km
Apogee alt
419.2 km
Semi-major
6,796.8 km
B*
9.2634e-4
RAAN
39.9592°
Arg perigee
116.3408°
Mean anomaly
243.7682°
Rev number
643

§ Raw data

STARLINK-362751 68702U 26081D   26145.13207669  .00051438  00000+0  92634-3 0  99992 68702  53.1598  39.9592 0000793 116.3408 243.7682 15.49323883  6436

JSON: /api/v1/satellites/68702 · /tle

For live sub-satellite position, see the globe view (requires WebGL).

§ Visibility from observer

Set your observer location to see the next 7 days of passes ≥ 10°. The values pass through the URL so the page stays shareable.

No JS? Fill the form by hand. The geolocation button needs JavaScript.